This is the latest recevied weather packets stored in our database for station/object K7AEL. If no packets are shown the sender has not sent any weather packets the latest 10 day(s).
| Time | Temp. | Humidity | Pressure | Rain* | Wind** | Luminosity | Snow |
|---|---|---|---|---|---|---|---|
| 1777408618 | 29.44° C | 12% | 1016.4 hPa | 0 mm | - | 679 W/m² | - |
| 1777408314 | 29.44° C | 13% | 1016.4 hPa | 0 mm | - | 686 W/m² | - |
| 1777408013 | 30° C | 13% | 1016 hPa | 0 mm | - | 690 W/m² | - |
| 1777407710 | 29.44° C | 13% | 1016.1 hPa | 0 mm | - | 705 W/m² | - |
| 1777407405 | 28.33° C | 15% | 1016.1 hPa | 0 mm | - | 708 W/m² | - |
| 1777407100 | 28.89° C | 14% | 1016.6 hPa | 0 mm | - | 706 W/m² | - |
| 1777406796 | 28.33° C | 16% | 1016.5 hPa | 0 mm | - | 720 W/m² | - |
| 1777406491 | 28.89° C | 15% | 1016.5 hPa | 0 mm | - | 722 W/m² | - |
| 1777406186 | 28.89° C | 15% | 1016.7 hPa | 0 mm | - | 725 W/m² | - |
| 1777405881 | 28.89° C | 16% | 1016.7 hPa | 0 mm | - | 730 W/m² | - |
| 1777405577 | 28.89° C | 16% | 1016.6 hPa | 0 mm | - | 733 W/m² | - |
| 1777405275 | 28.33° C | 17% | 1016.8 hPa | 0 mm | - | 735 W/m² | - |
| 1777404974 | 28.33° C | 18% | 1016.6 hPa | 0 mm | - | 732 W/m² | - |
| 1777404668 | 28.33° C | 18% | 1016.8 hPa | 0 mm | - | 736 W/m² | - |
| 1777404365 | 27.22° C | 19% | 1016.9 hPa | 0 mm | - | 742 W/m² | - |
| 1777404062 | 27.78° C | 18% | 1016.9 hPa | 0 mm | - | 746 W/m² | - |
| 1777403757 | 28.33° C | 19% | 1017 hPa | 0 mm | - | 744 W/m² | - |
| 1777403456 | 27.78° C | 19% | 1017 hPa | 0 mm | - | 737 W/m² | - |
| 1777403150 | 27.22° C | 19% | 1017 hPa | 0 mm | - | 738 W/m² | - |
| 1777402846 | 27.22° C | 19% | 1017.1 hPa | 0 mm | - | 737 W/m² | - |
| 1777402543 | 27.22° C | 19% | 1017.4 hPa | 0 mm | - | 738 W/m² | - |
| 1777402241 | 27.78° C | 20% | 1017.5 hPa | 0 mm | - | 736 W/m² | - |
| 1777401936 | 27.22° C | 20% | 1017.5 hPa | 0 mm | - | 735 W/m² | - |
| 1777401634 | 27.22° C | 19% | 1017.8 hPa | 0 mm | - | 732 W/m² | - |
| 1777401331 | 26.67° C | 20% | 1017.6 hPa | 0 mm | - | 731 W/m² | - |
* Rain latest hour (hover to see other rain measurements)
** Current wind speed in m/s (hover to see current wind gust speed)